Preview of NWS' New Version of Forecast
This preview is not operational and should not be used for support decisions.

Regional Weather Roundup (RWR)

Issued by New York, NY (OKX)

                            
000
ASUS41 KOKX 200913
RWROKX

Regional Weather Roundup
National Weather Service New York NY
400 AM EST WED FEB 20 2019

Note: "FAIR" indicates few or no clouds below 12,000 feet with no
significant weather and/or obstructions to visibility.

NYZ071-072-176-178-NJZ106-104-201000-
New York City Metro Area
  
CITY           SKY/WX    TMP DP  RH WIND       PRES   REMARKS
Central Park   FAIR      28   6  39 MISG      30.62S                  
Bronx Lehman C   N/A     28   9  43 N2          N/A                   
LaGuardia Arpt CLOUDY    28   7  41 NE3       30.61S                  
Queens College   N/A     28  10  47 NE3         N/A                   
Kennedy Intl   CLOUDY    28  11  48 N5        30.62S WCI  23          
Breezy Point     N/A    N/A N/A N/A N3          N/A                   
Brooklyn Coll    N/A     30   9  40 W5          N/A  WCI  25          
Staten Island    N/A     28   9  43 N5          N/A  WCI  23          
Newark/Liberty CLOUDY    27   8  44 N7        30.61F WCI  19          
Teterboro      FAIR      27   7  42 NE8       30.61S WCI  19          
$$
 
NYZ177-179-078>081-201000-
Long Island New York
  
CITY           SKY/WX    TMP DP  RH WIND       PRES   REMARKS
Jones Beach      N/A    N/A N/A N/A N7          N/A                   
Wantagh          N/A     28  12  50 N3          N/A                   
Hempstead        N/A     30  14  51 CALM      30.65S                  
Matinecock Pt    N/A    N/A N/A N/A NE7         N/A                   
Farmingdale    FAIR      25  10  53 NE5       30.60F WCI  19          
MacArthur/ISP  FAIR      25  10  53 N7        30.60S WCI  17          
Stony Brook      N/A     27  12  54 NE2         N/A                   
Shirley        FAIR      25   9  50 N5        30.62S WCI  19          
Mt Sinai Harb    N/A    N/A N/A N/A N8          N/A                   
Westhampton    FAIR      25  10  53 N7        30.62S WCI  17          
East Hampton   FAIR      23   9  54 N5        30.60S WCI  17          
Southold         N/A     27  12  54 N12         N/A  WCI  16          
Montauk          N/A     24   9  52 MISG      30.62R                  
$$
 
NYZ052-065-067-201000-
Hudson Valley
  
CITY           SKY/WX    TMP DP  RH WIND       PRES   REMARKS
White Plains   FAIR      22   7  52 N5        30.57F WCI  16          
Larchmont Harb   N/A    N/A N/A N/A N6          N/A                   
Croton On Huds   N/A    N/A N/A N/A NE1         N/A                   
Somers           N/A     21   9  58 N1          N/A                   
Brewster         N/A     18  10  73 N2          N/A                   
Newburgh       MOCLDY    19  10  68 CALM      30.60R                  
Montgomery     FAIR      19  10  68 CALM      30.59R                  
Otisville        N/A     19   9  63 NE1         N/A                   
Warwick          N/A     23  12  63 NW2         N/A                   
Suffern          N/A     23  12  63 NE1         N/A                   
Poughkeepsie   FAIR      18   9  68 CALM      30.62R                  
Albany         MOCLDY    10   2  69 CALM      30.59F                  
$$
 
NJZ001-105-106-008-010-013-015-019>022-104-201000-
New Jersey
  
CITY           SKY/WX    TMP DP  RH WIND       PRES   REMARKS
Newark/Liberty CLOUDY    27   8  44 N7        30.61F WCI  19          
Teterboro      FAIR      27   7  42 NE8       30.61S WCI  19          
Caldwell       FAIR      26   9  48 CALM      30.61F                  
Somerville     FAIR      25  16  68 CALM      30.60F                  
Linden         FAIR      28   8  43 CALM      30.62S                  
Perth Amboy      N/A    N/A N/A N/A N3          N/A                   
Sussex         FAIR      22  12  65 W3        30.57F                  
Andover          N/A     22  10  60 CALM      30.58F                  
Trenton        FAIR      30  15  53 N3        30.59F                  
Millville      FAIR      31  14  49 NE5       30.59S WCI  26          
Atlantic City  FAIR      30  17  58 N3        30.60F                  
Wrightstown    FAIR      27  17  64 N3        30.57                   
Toms River     FAIR      27  18  69 N3        30.61F                  
Belmar         FAIR      28  13  53 NW5       30.61F WCI  23          
$$
 
PAZ047>061-062-071-201000-
Eastern Pennsylvania
  
CITY           SKY/WX    TMP DP  RH WIND       PRES   REMARKS
Philadelphia   CLOUDY    31  12  45 E5        30.61F WCI  26          
Allentown      FAIR      27  15  61 NE5       30.58F WCI  22          
Scranton       FAIR      21  11  65 CALM      30.52F                  
$$

CTZ002-004>006-009-010-012-RIZ004-006-007-MAZ004-011-015-201000-
Southern New England

 In CT
  
CITY           SKY/WX    TMP DP  RH WIND       PRES   REMARKS
Bradley Intl   CLOUDY    17   7  64 CALM      30.58S                  
Hartford       FAIR      20   8  60 S5        30.61R WCI  13          
Danbury        FAIR      19   9  65 W3        30.60R                  
Wtrbury/Oxford FAIR      17   8  67 CALM      30.56R                  
Norwalk Harbor   N/A    N/A N/A N/A NW6         N/A                   
Bridgeport     FAIR      24   8  50 N3        30.62R                  
Meriden        FAIR      21   9  59 CALM      30.61R                  
New Haven      FAIR      24   9  52 N3        30.61R                  
Chester        FAIR      19   9  63 CALM      30.58R                  
Groton         FAIR      21   4  47 NW3       30.61R                  
Willimantic    FAIR      15   6  67 NE3       30.58F                  

 In RI
  
CITY           SKY/WX    TMP DP  RH WIND       PRES   REMARKS
Providence     FAIR      19   6  57 W6        30.59S WCI  11          
Block Island   FAIR      21   8  57 NW3       30.61                   
Westerly       FAIR      23   7  50 W3        30.61R                  
 
In MA
  
CITY           SKY/WX    TMP DP  RH WIND       PRES   REMARKS
Boston         MOCLDY    21   3  45 NW8       30.57F WCI  11          
Worcester      FAIR      15   1  53 NW12      30.48F WCI   2          
Westfield      FAIR       9   3  77 CALM      30.57S                  
Provincetown   FAIR      23   9  55 N18       30.55F WCI   9          
Nantucket      FAIR      24   8  50 NW14      30.55S WCI  12          
$$

ANZ330-335-338-340-345-350-353-355-201000-
Coastal Marine Observations

  
STATION/POSITION TIME  SKY/WX   TEMP    WIND        PRES    VSBY  WAVE
                                AIR SEA DIR/SP/G                  HT/PER
                 (UTC)          (F)     (DEG/KT/KT) (MB)    (MI)  (FT/S)
NY Harb Entrance 0850            31 40   10/  4/  6 1036.6          1/ 8
20 S Fire Island 0850            31 39   20/  8/ 10 1036.4          2/ 8
Great South Bay  NOT AVBL
23 SSW Montauk P 0850            27 39  320/ 14/ 16 1036.5          2/ 3
15 E Barnegat Li 0830               41                N/A           2/ 8
Hudson Canyon    NOT AVBL
Kings Point      0848            27 32  100/  2/  4 1037.5
Execution Rocks  NOT AVBL
Western LI Sound NOT AVBL
Central LI Sound NOT AVBL
Robbins Reef     0848            28     340/  6/  7 1037.2
$$


>>>>>>>>>>>>>>>>>>>>>>>>>>>> KEY <<<<<<<<<<<<<<<<<<<<<<<<<<<
>                                                          <
>     SKY/WX - Sky Condition/Present Weather               <
>     TMP    - Temperature in Fahrenheit                   <
>     DP     - Dew Point in Fahrenheit                     <
>     RH     - Relative Humidity in Percent                <
>     WIND   - Direction (from) and Speed in MPH           <
>     PRES   - Mean Sea Level Pressure (inches of Hg)      <
>     WCI    - Wind Chill Index                            <
>     VSB    - Visibility in Miles                         <
>     HX     - Heat Index                                  <
>     TC     - Temperature in Celsius                      <
>     VRB    - Variable Wind Direction                     <
>                                                          <
>>>>>>>>>>>>>>>>>>>>>>>>>>>> KEY <<<<<<<<<<<<<<<<<<<<<<<<<<<